Showing default

ICEYE-X4, 44390

Orbit data source: Space-Track

ICEYE-X4, 44390 is a payload satellite owned by ICEYE (FI) in SSO that was launched on Fri, 05 Jul 2019 UTC via a SOYUZ-2-1B launch vehicle from the Vostochny Cosmodrome (VOSTO). Payloads include a variety of satellites, spacecraft, and rockets equipped with specific instruments for various scientific and technological missions. These include communications satellites like Starlink; space stations such as the ISS; scientific satellites like the Hubble; Earth observation satellites from companies like Planet Labs, Umbra, and HawkEye 360; GPS; miniature CubeSats for education and research; and military/defense satellites.

Loading next visibility...
ICEYE-X4 details
Identifier
44390, 2019-038D
Orbit
SSO
Last TLE update9 hours ago
Origin
Flag of FIICEYE (FI / FIN)
ManufacturerICEYE
MissionOperational Commercial Radar Imaging
Bus & MotorICEYE, Unknown motor
Mass80 kg wet, 80 kg dry
Launch date (UTC)
2019-07-05 (5 years ago)
Launch vehicle
SOYUZ-2-1B
Launch site
Vostochny Cosmodrome (VOSTO)
Object type
Payload
Rocket body
Debris
Shape & HBRBox + 1 Pan, 3.25 m
Radar Cross Section1.837 m², Medium (>0.1 m² and < 1m²)

Expand to show TLE details & history

TLE from 9 hours ago
0 ICEYE-X4
1 44390U 19038D   24361.09740790  .00013050  00000-0  69024-3 0  9996
2 44390  97.9019 355.9113 0016980  19.1094 341.0771 15.15478369299936
Epoch: 2024-12-26T02:20Z
Definitive object data (Epoch: 2024-12-26T02:20:16.042Z)
Latitude0.00001°
Longitude-134.23724°
Altitude511.517 km
Speed7.614 km/s
True Right ascension23h 43m 38s
True Declination0° 00' 00"
Sunlit
Object was in daylight at TLE epoch
Visualization TLE readout
Latitude-23.19876°
Longitude42.75324°
Altitude539.969 km
Speed7.585 km/s
Apparent Right ascension14h 04m 33s
Apparent Declination-72° 55' 34"
Sunlit
Object is in daylight
Visualization observer readout
Local Sidereal Time10:30:35
Azimuth164.4° S
Elevation-28.648°
Doppler factor1
Orbital elements
Apogee altitude528.228 km
Perigee altitude504.813 km
Semi-major axis6,894.657 km
Eccentricity0.001698
Inclination97.9019°
RAAN355.9113°
Arg. of periapsis19.1094°
True anomaly341.01387°
Mean anomaly341.0771°
Eccentric anomaly341.0455°
Mean motion3.79118 °/min
BSTAR0.00069024
Orbital period94.96 mins
Loading maneuver chart data...

ICEYE-X4 Visibility forecast

Observer location: undefined°, undefined

Span
Click to sort rows by Start time (UTC) header in descending order
Start Az.
Max El. time (UTC)
Max El. Az.
Max El.
End time (UTC)
End Az.
7 mins2024-12-26 12:24:16.868Z26.75° NE2024-12-26 12:27:16.868Z76.933° E33.704°2024-12-26 12:31:16.868Z172.593° S
4 mins2024-12-26 23:06:16.868Z98.006° ESE2024-12-26 23:07:16.868Z76.876° E19.336°2024-12-26 23:10:16.868Z20.791° NNE
4 mins2024-12-27 00:40:16.868Z232.915° WSW2024-12-27 00:41:16.868Z255.946° W21.412°2024-12-27 00:44:16.868Z315.358° NNW
|